When you browse on this site, cookies collect data to enhance your experience and personalize the content and advertising you see.
Visit our Privacy Policy to learn more. By continuing to use the site, you agree to this use of cookies and data.

Hourly Weather Nashavar

Today, 10 July, Friday

Time Temperature Precipitation Wind Pressure Humidity
00:00 +35°C° 0.3 mm 2 mps 720 mmHg 52%
01:00 +34°C° 0.3 mm 2 mps 720 mmHg 54%
02:00 +33°C° 0.3 mm 1 mps 719 mmHg 56%
03:00 +32°C° 0.3 mm 1 mps 719 mmHg 58%
04:00 +32°C° 0.3 mm 1 mps 719 mmHg 60%
05:00 +31°C° 0.3 mm 2 mps 719 mmHg 62%
06:00 +32°C° 0.2 mm 1 mps 719 mmHg 60%
07:00 +32°C° 0.2 mm 1 mps 720 mmHg 57%
08:00 +33°C° 0.2 mm 1 mps 720 mmHg 54%
09:00 +34°C° 0 mm 1 mps 720 mmHg 50%
10:00 +36°C° 0 mm 1 mps 720 mmHg 45%
11:00 +37°C° 0 mm 1 mps 720 mmHg 41%
12:00 +39°C° 0 mm 1 mps 720 mmHg 37%
13:00 +41°C° 0 mm 1 mps 720 mmHg 33%
14:00 +42°C° 0 mm 1 mps 719 mmHg 29%
15:00 +42°C° 0 mm 2 mps 719 mmHg 28%
16:00 +43°C° 0 mm 2 mps 718 mmHg 26%
17:00 +43°C° 0 mm 2 mps 718 mmHg 25%
18:00 +42°C° 0 mm 2 mps 718 mmHg 28%
19:00 +41°C° 0 mm 2 mps 718 mmHg 30%
20:00 +40°C° 0 mm 2 mps 718 mmHg 32%
21:00 +39°C° 0 mm 2 mps 718 mmHg 34%
22:00 +39°C° 0 mm 1 mps 719 mmHg 36%
23:00 +37°C° 0 mm 1 mps 719 mmHg 38%

Tomorrow, 11 July, Saturday

Time Temperature Precipitation Wind Pressure Humidity
00:00 +37°C° 0 mm 1 mps 719 mmHg 39%
01:00 +36°C° 0 mm 1 mps 718 mmHg 39%
02:00 +36°C° 0 mm 1 mps 718 mmHg 40%
03:00 +35°C° 0 mm 1 mps 718 mmHg 41%
04:00 +35°C° 0 mm 1 mps 718 mmHg 42%
05:00 +34°C° 0 mm 1 mps 718 mmHg 42%
06:00 +35°C° 0 mm 1 mps 718 mmHg 38%
07:00 +37°C° 0 mm 2 mps 718 mmHg 33%
08:00 +38°C° 0 mm 2 mps 719 mmHg 29%
09:00 +40°C° 0 mm 2 mps 719 mmHg 24%
10:00 +41°C° 0 mm 2 mps 719 mmHg 19%
11:00 +44°C° 0 mm 3 mps 719 mmHg 14%
12:00 +45°C° 0 mm 2 mps 718 mmHg 13%
13:00 +45°C° 0 mm 2 mps 718 mmHg 12%
14:00 +45°C° 0 mm 1 mps 718 mmHg 10%
15:00 +45°C° 0 mm 1 mps 717 mmHg 10%
16:00 +46°C° 0 mm 1 mps 717 mmHg 9%
17:00 +46°C° 0 mm 1 mps 716 mmHg 9%
18:00 +45°C° 0 mm 1 mps 716 mmHg 11%
19:00 +43°C° 0 mm 2 mps 716 mmHg 14%
20:00 +42°C° 0 mm 2 mps 716 mmHg 16%
21:00 +41°C° 0 mm 2 mps 717 mmHg 19%
22:00 +40°C° 0 mm 2 mps 717 mmHg 22%
23:00 +40°C° 0 mm 1 mps 717 mmHg 25%

Day after tomorrow, 12 July, Sunday

Time Temperature Precipitation Wind Pressure Humidity
00:00 +39°C° 0 mm 1 mps 717 mmHg 27%
01:00 +37°C° 0 mm 1 mps 717 mmHg 29%
02:00 +37°C° 0 mm 2 mps 717 mmHg 32%
03:00 +37°C° 0.2 mm 2 mps 717 mmHg 34%
04:00 +36°C° 0.2 mm 2 mps 717 mmHg 36%
05:00 +36°C° 0.2 mm 3 mps 717 mmHg 38%
06:00 +35°C° 0.4 mm 3 mps 718 mmHg 40%
07:00 +34°C° 0.4 mm 3 mps 718 mmHg 42%
08:00 +34°C° 0.4 mm 2 mps 719 mmHg 44%
09:00 +35°C° 0.4 mm 2 mps 719 mmHg 42%
10:00 +35°C° 0.4 mm 2 mps 720 mmHg 40%
11:00 +36°C° 0.4 mm 2 mps 720 mmHg 37%
12:00 +38°C° 0.1 mm 2 mps 720 mmHg 34%
13:00 +39°C° 0.1 mm 2 mps 720 mmHg 31%
14:00 +40°C° 0.1 mm 2 mps 719 mmHg 28%
15:00 +40°C° 0.1 mm 2 mps 719 mmHg 28%
16:00 +40°C° 0.1 mm 2 mps 719 mmHg 28%
17:00 +40°C° 0.1 mm 2 mps 718 mmHg 29%
18:00 +40°C° 0 mm 2 mps 719 mmHg 30%
19:00 +39°C° 0 mm 2 mps 719 mmHg 32%
20:00 +39°C° 0 mm 2 mps 719 mmHg 33%
21:00 +38°C° 0.4 mm 2 mps 720 mmHg 35%
22:00 +36°C° 0.4 mm 1 mps 720 mmHg 37%
23:00 +36°C° 0.4 mm 1 mps 720 mmHg 39%

13 July, Monday

Time Temperature Precipitation Wind Pressure Humidity
00:00 +35°C° 0.1 mm 1 mps 720 mmHg 42%
01:00 +36°C° 0.1 mm 2 mps 720 mmHg 44%
02:00 +35°C° 0.1 mm 2 mps 719 mmHg 46%
03:00 +34°C° 0.1 mm 2 mps 719 mmHg 51%
04:00 +32°C° 0.1 mm 2 mps 719 mmHg 55%
05:00 +31°C° 0.1 mm 1 mps 719 mmHg 59%
06:00 +31°C° 0 mm 1 mps 720 mmHg 58%
07:00 +31°C° 0 mm 1 mps 720 mmHg 58%
08:00 +32°C° 0 mm 1 mps 721 mmHg 57%
09:00 +35°C° 0 mm 2 mps 721 mmHg 51%
10:00 +36°C° 0 mm 2 mps 721 mmHg 46%
11:00 +38°C° 0 mm 2 mps 721 mmHg 40%
12:00 +39°C° 0 mm 2 mps 721 mmHg 37%
13:00 +40°C° 0 mm 2 mps 721 mmHg 34%
14:00 +42°C° 0 mm 3 mps 721 mmHg 31%
15:00 +43°C° 0 mm 3 mps 720 mmHg 30%
16:00 +43°C° 0 mm 4 mps 720 mmHg 29%
17:00 +43°C° 0 mm 4 mps 720 mmHg 28%
18:00 +42°C° 0.1 mm 4 mps 720 mmHg 30%
19:00 +40°C° 0.1 mm 3 mps 720 mmHg 32%
20:00 +40°C° 0.1 mm 3 mps 721 mmHg 34%
21:00 +39°C° 0.1 mm 2 mps 721 mmHg 35%
22:00 +39°C° 0.1 mm 2 mps 722 mmHg 37%
23:00 +37°C° 0.1 mm 1 mps 722 mmHg 39%

14 July, Tuesday

Time Temperature Precipitation Wind Pressure Humidity
00:00 +37°C° 0.7 mm 2 mps 722 mmHg 43%
01:00 +36°C° 0.7 mm 3 mps 722 mmHg 46%
02:00 +34°C° 0.7 mm 3 mps 722 mmHg 50%
03:00 +34°C° 1.1 mm 3 mps 722 mmHg 52%
04:00 +32°C° 1.1 mm 2 mps 723 mmHg 54%
05:00 +31°C° 1.1 mm 1 mps 723 mmHg 56%
06:00 +32°C° 0.3 mm 1 mps 723 mmHg 52%
07:00 +33°C° 0.3 mm 1 mps 724 mmHg 48%
08:00 +34°C° 0.3 mm 1 mps 724 mmHg 45%
09:00 +35°C° 0.1 mm 1 mps 724 mmHg 41%
10:00 +36°C° 0.1 mm 1 mps 724 mmHg 37%
11:00 +39°C° 0.1 mm 1 mps 724 mmHg 34%
12:00 +40°C° 0 mm 1 mps 724 mmHg 32%
13:00 +41°C° 0 mm 1 mps 724 mmHg 30%
14:00 +42°C° 0 mm 2 mps 724 mmHg 29%
15:00 +42°C° 0 mm 2 mps 723 mmHg 28%
16:00 +42°C° 0 mm 2 mps 723 mmHg 27%
17:00 +43°C° 0 mm 2 mps 722 mmHg 27%
18:00 +42°C° 0.3 mm 2 mps 723 mmHg 29%
19:00 +41°C° 0.3 mm 2 mps 723 mmHg 31%
20:00 +40°C° 0.3 mm 2 mps 723 mmHg 34%
21:00 +39°C° 0.7 mm 2 mps 723 mmHg 37%
22:00 +38°C° 0.7 mm 2 mps 724 mmHg 39%
23:00 +37°C° 0.7 mm 2 mps 724 mmHg 42%

15 July, Wednesday

Time Temperature Precipitation Wind Pressure Humidity
00:00 +36°C° 0.5 mm 1 mps 724 mmHg 44%
01:00 +35°C° 0.5 mm 1 mps 723 mmHg 46%
02:00 +33°C° 0.5 mm 0 mps 723 mmHg 48%
03:00 +35°C° 0.1 mm 1 mps 723 mmHg 49%
04:00 +34°C° 0.1 mm 1 mps 723 mmHg 50%
05:00 +34°C° 0.1 mm 1 mps 723 mmHg 51%
06:00 +35°C° 0.2 mm 1 mps 724 mmHg 48%
07:00 +36°C° 0.2 mm 2 mps 724 mmHg 46%
08:00 +37°C° 0.2 mm 2 mps 724 mmHg 43%
09:00 +38°C° 0 mm 2 mps 724 mmHg 41%
10:00 +39°C° 0 mm 2 mps 724 mmHg 39%
11:00 +40°C° 0 mm 2 mps 724 mmHg 36%
12:00 +41°C° 0 mm 2 mps 723 mmHg 33%
13:00 +42°C° 0 mm 2 mps 723 mmHg 31%
14:00 +43°C° 0 mm 2 mps 722 mmHg 28%
15:00 +43°C° 0 mm 2 mps 722 mmHg 27%
16:00 +43°C° 0 mm 2 mps 722 mmHg 26%
17:00 +45°C° 0 mm 3 mps 721 mmHg 25%
18:00 +44°C° 0.1 mm 3 mps 721 mmHg 28%
19:00 +43°C° 0.1 mm 3 mps 721 mmHg 30%
20:00 +40°C° 0.1 mm 3 mps 721 mmHg 32%
21:00 +39°C° 0.7 mm 2 mps 722 mmHg 36%
22:00 +38°C° 0.7 mm 2 mps 722 mmHg 40%
23:00 +36°C° 0.7 mm 1 mps 722 mmHg 44%
Show more